Tracking 17938 objects as of 21-February-2017
HD Live streaming from Space Station
objects crossing your sky now

THORAD AGENA D DEB

Track THORAD AGENA D DEB now!
10-day predictions


NORAD ID: 4768
Int'l Code: 1970-025DN
Perigee: 986.0 km
Apogee: 1,030.4 km
Inclination: 100.2 °
Period: 105.1 minutes
Semi major axis: 7379 km
RCS: 0.064 m2 (small)
Launch date: April 8, 1970
Source: United States (US)
Launch site: AIR FORCE WESTERN TEST RANGE (AFWTR)

Note: This is SATELLITE DEBRIS
Your satellite tracking list
Your tracking list is empty





NASA's NSSDC Master Catalog

Two Line Element Set (TLE):
1 04768U 70025DN  17052.41565434  .00000094  00000-0  16413-3 0  9997
2 04768 100.1943 221.4840 0030070 346.6743  65.7170 13.69576226332369
Source of the keplerian elements: AFSPC